Flag for Canada Weather past 2 weeks in Kings County, Nova Scotia, Canada

Now
49 °F

Cool.


Feels Like: 43 °F
Forecast: 40 / 66 °F
Wind: 16 mph from Southwest

Location: McNabs Island - AUT

Current Time: May 24, 2015 at 12:28:34 PM

Latest Report: May 24, 2015 at 12:00 PM


Visibility: N/A

Pressure: 30.09 "Hg

Humidity: 78%

Dew point: 42 °F

Location of Kings CountyLocation

Historic Weather in Kings County — Graph

°F

Kings County temperature yesterday

Maximum temperature yesterday: 50 °F (at 9:00 AM)
Minimum temperature yesterday: 40 °F (at 2:00 PM)
Average temperature yesterday: 46 °F

Past Weeks' High & Low Weather Summary

 TemperatureHumidityPressure
High69 °F (May 10, 1:00 PM)100% (May 10, 2:00 AM)30.45 "Hg (May 10, 2:00 AM)
Low38 °F (May 24, 6:00 AM)32% (May 14, 12:00 PM)29.48 "Hg (May 20, 5:00 PM)
Average49 °F78%30.03 "Hg
* Reported May 9 11:00 AM — May 24 11:00 AM, Kings County, Weather by CustomWeather, © 2015

Note: Actual official high and low records may vary slightly from our data, if they occured in-between our weather recording intervals... More about our weather records

Advertising

Kings County weather history for previous 24 hours

 ConditionsComfort  
Time TempWeatherWind HumidityBarometerVisibility
11:00 AM
Sun, May 24
48 °FCool.20 mph78%30.10 "HgN/A
10:00 AM49 °FCool.18 mph78%30.12 "HgN/A
9:00 AM47 °FCool.18 mph81%30.14 "HgN/A
8:00 AM45 °FQuite cool.17 mph83%30.16 "HgN/A
7:00 AM42 °FQuite cool.15 mph85%30.18 "HgN/A
6:00 AM38 °FChilly.14 mph94%30.19 "HgN/A
5:00 AM39 °FChilly.16 mph86%30.18 "HgN/A
4:00 AM39 °FChilly.14 mph85%30.18 "HgN/A
3:00 AM41 °FQuite cool.12 mph79%30.18 "HgN/A
2:00 AM41 °FQuite cool.15 mph79%30.19 "HgN/A
1:00 AM40 °FQuite cool.15 mph80%30.18 "HgN/A
12:00 AM43 °FQuite cool.20 mph69%30.17 "HgN/A
11:00 PM
Sat, May 23
44 °FQuite cool.16 mph61%30.16 "HgN/A
10:00 PM42 °FQuite cool.8 mph66%30.14 "HgN/A
9:00 PM44 °FQuite cool.8 mph63%30.11 "HgN/A
8:00 PM47 °FCool.8 mph54%30.08 "HgN/A
7:00 PM49 °FCool.10 mph52%30.06 "HgN/A
6:00 PM47 °FCool.12 mph61%30.04 "HgN/A
5:00 PM47 °FCool.12 mph64%30.01 "HgN/A
4:00 PM48 °FCool.13 mph77%29.98 "HgN/A
3:00 PM48 °FCool.12 mph74%29.96 "HgN/A
2:00 PM40 °FChilly.7 mph90%29.95 "HgN/A
1:00 PM44 °FQuite cool.10 mph80%29.92 "HgN/A
12:00 PM46 °FCool.6 mph72%29.93 "HgN/A
Weather by CustomWeather, © 2015

See weather overviewHow to use our weather pages